Wind_Speed
32 32 33 33 33 34 35 36 37 35 35 34 35 36 37 37 38 39 40 40 40 40 41 42 42 43 44 44 45 47 48 48 49 49 50 50 50 51 52 52 53 54 54 54
34 34 35 35 34 34 35 36 37 37 36 35 37 38 38 38 39 40 41 41 41 42 42 42 43 43 44 44 45 46 46 48 49 49 49 50 50 51 51 52 53 54 54 53
35 35 37 37 35 36 37 37 38 38 36 36 38 39 40 41 40 40 41 42 42 43 44 44 45 45 45 45 45 45 46 47 48 48 48 49 49 50 50 51 52 53 53 52
37 37 38 36 36 36 37 37 38 39 38 38 39 39 40 41 41 40 41 41 42 42 43 44 45 45 46 46 46 46 46 46 47 48 48 49 50 50 51 51 51 51 51 51
37 38 39 37 36 36 37 36 36 37 38 39 40 40 40 40 41 41 41 41 42 42 43 44 44 44 45 45 46 46 46 47 48 48 49 50 50 50 50 51 51 51 51 51
37 38 39 37 37 37 37 37 36 37 38 39 40 40 40 41 41 41 42 42 42 42 43 43 44 44 44 45 45 46 46 47 48 48 49 49 50 50 50 50 50 50 51 52
37 38 39 37 37 38 38 38 39 39 39 40 40 41 41 41 41 42 42 42 42 42 43 43 43 44 44 45 45 46 46 46 47 48 48 48 49 49 49 49 49 49 49 50
38 39 38 38 38 39 40 40 40 41 42 42 42 42 42 42 42 42 43 43 43 43 43 44 44 44 45 45 46 46 46 46 46 47 47 47 47 47 47 47 47 47 47 48
38 39 39 39 39 40 41 41 42 42 43 43 43 43 43 43 43 43 43 43 43 43 43 44 44 44 45 45 46 46 46 45 45 45 45 46 46 46 45 45 46 46 46 46
39 39 39 39 39 40 42 42 42 43 43 43 44 43 43 43 43 43 43 43 43 43 43 44 44 45 45 45 45 46 46 46 45 45 45 45 45 45 44 44 44 45 45 45
40 39 39 39 40 41 41 42 42 43 43 43 44 43 43 43 44 43 43 43 43 43 43 43 44 44 44 45 45 45 45 45 44 44 44 44 43 43 43 43 43 43 44 44
40 39 40 39 40 40 41 41 42 42 42 42 43 42 42 42 43 43 43 43 43 43 42 42 42 43 43 44 44 44 44 44 44 44 43 43 41 41 41 42 42 43 44 44
38 38 39 39 39 40 40 40 40 41 41 42 41 41 41 41 41 41 41 41 41 41 41 41 41 42 42 43 43 43 43 43 43 43 42 41 40 39 39 40 41 41 42 43
37 37 37 38 38 38 39 39 39 40 40 40 40 40 40 40 40 40 39 39 39 40 40 40 41 41 42 42 42 41 41 41 41 41 40 39 39 39 39 38 39 39 40 41
37 37 37 37 37 37 38 38 38 38 38 39 39 39 39 38 38 38 37 37 37 38 38 38 39 39 39 39 39 39 38 38 37 37 37 37 37 37 37 37 37 37 38 39
36 36 36 36 36 36 37 37 36 36 36 36 37 37 36 36 36 36 36 36 36 36 36 36 36 37 37 36 36 36 35 35 34 33 34 34 35 35 35 35 35 35 36 36
35 34 34 33 34 34 34 34 34 34 34 35 34 34 34 34 34 34 34 35 35 35 35 35 35 35 35 35 35 35 34 33 32 32 32 33 34 34 34 34 34 35 35 35
33 32 32 32 33 33 33 32 33 33 33 33 33 33 33 32 33 33 34 34 34 35 35 35 35 35 35 35 34 33 32 32 31 32 32 33 33 33 33 34 34 34 34 35
31 32 32 32 33 32 32 32 32 32 32 31 31 31 31 31 31 32 32 33 33 33 33 34 33 33 33 33 32 31 30 30 30 31 31 32 32 32 32 32 32 33 34 34
30 30 31 31 31 31 31 31 31 31 30 29 29 29 29 29 30 30 31 31 31 31 31 31 31 31 31 30 29 28 28 29 29 29 30 30 30 31 31 31 31 32 32 33
29 29 30 30 30 30 30 30 29 29 29 28 28 28 28 29 30 30 30 30 30 30 30 31 30 30 29 28 27 27 28 28 28 28 29 29 29 29 29 30 31 31 31 32
29 29 29 30 29 29 28 28 28 28 27 27 27 28 28 29 29 30 30 29 29 30 30 29 29 28 28 27 27 28 28 28 28 28 28 28 28 28 29 29 30 30 30 31
28 28 28 28 28 27 27 27 26 26 26 26 27 27 28 29 29 29 29 29 29 29 29 29 28 28 27 27 27 28 27 27 27 28 28 28 28 28 28 28 28 29 29 30
27 27 27 26 26 25 25 25 25 25 26 26 27 28 28 28 28 28 28 28 28 28 28 28 27 27 27 27 27 27 27 27 27 27 27 28 27 27 27 27 27 28 28 29
25 25 24 24 24 24 24 24 25 26 26 27 27 27 27 27 27 27 27 27 27 27 27 27 26 26 26 26 26 25 25 26 26 26 27 27 27 27 27 27 28 28 28 28
23 23 23 24 24 24 24 24 25 26 27 27 27 27 27 27 26 26 26 26 26 26 26 25 26 25 25 25 24 24 24 24 25 25 25 26 26 26 26 26 27 27 27 26
23 23 23 23 23 23 24 25 26 27 27 27 27 27 27 27 26 26 26 26 25 25 24 24 24 24 24 23 23 23 24 24 24 24 25 25 25 25 25 25 25 25 25 25
Wind_Direction
282 281 279 279 279 277 276 277 278 279 279 280 278 277 278 278 278 277 276 275 274 273 272 271 271 272 272 272 271 270 269 269 269 269 269 269 269 269 268 267 267 265 265 265
282 281 280 278 279 279 277 276 278 278 279 280 279 279 279 278 277 277 277 276 274 273 273 272 272 273 274 273 273 273 272 271 270 270 270 270 270 270 270 269 268 267 266 265
284 282 280 279 280 279 279 278 277 277 279 280 279 279 279 279 278 278 278 277 275 274 273 273 273 274 274 274 274 274 274 273 272 271 270 270 270 270 271 271 269 268 266 265
285 283 281 284 282 281 280 279 279 279 279 280 280 280 280 280 279 278 277 277 276 276 275 274 275 275 275 275 274 274 274 274 274 273 272 271 271 271 270 270 268 268 266 265
286 285 284 284 285 284 282 281 281 281 281 280 280 281 281 281 281 280 278 278 278 277 276 276 276 277 276 276 275 275 275 275 274 274 273 272 272 271 271 270 269 267 266 265
286 286 286 286 285 283 283 281 282 283 283 282 282 281 281 280 280 280 279 278 278 278 277 277 277 277 277 277 276 276 276 276 276 274 274 274 273 272 271 270 269 268 266 265
286 286 286 287 285 284 283 285 284 283 283 283 283 283 282 281 280 279 279 279 279 279 278 278 278 278 278 277 277 277 277 277 276 275 275 274 273 273 272 271 269 267 266 265
286 286 287 287 285 283 283 283 284 284 283 283 283 284 283 281 280 279 279 279 279 279 279 278 278 278 279 278 278 277 278 278 277 276 275 275 274 273 271 269 267 266 266 266
286 287 287 286 285 284 283 283 284 284 284 284 284 283 282 282 281 280 279 279 279 279 278 279 279 279 279 279 279 278 278 278 277 276 275 275 274 272 270 268 266 265 266 266
286 287 287 287 286 285 285 285 285 284 285 285 285 284 283 282 282 281 280 280 280 279 279 279 279 279 279 279 279 278 278 277 277 276 275 275 274 272 269 267 266 266 266 266
286 287 287 287 287 286 285 285 285 285 285 285 285 285 284 283 282 282 281 281 280 279 279 279 279 279 280 280 280 280 279 277 277 277 276 275 273 271 269 268 268 267 266 266
288 288 288 288 288 288 287 286 286 286 286 286 286 285 284 284 283 283 282 281 281 280 280 280 280 280 281 281 280 280 279 278 277 277 276 274 272 271 270 270 270 269 268 267
290 290 289 289 289 290 289 289 289 288 288 287 286 285 285 284 284 283 283 282 281 280 280 280 281 281 282 282 281 281 280 279 278 278 277 275 273 272 272 272 271 270 269 268
292 291 291 291 291 291 290 290 290 290 289 288 287 286 286 285 284 284 284 282 282 281 281 281 282 283 283 283 283 282 282 281 279 277 276 274 273 273 273 272 271 270 270 269
294 293 293 293 292 292 292 291 291 291 291 290 288 287 287 286 285 284 284 283 283 282 282 283 283 284 284 284 284 284 283 282 280 277 274 273 273 273 273 272 271 270 270 269
295 294 294 293 293 292 292 293 293 293 292 291 289 288 288 287 286 285 284 284 284 284 284 285 285 285 286 286 286 285 284 282 279 277 275 274 274 274 273 272 272 272 272 271
296 296 295 295 295 295 295 295 294 295 295 293 291 290 289 288 287 286 286 285 285 285 285 285 285 285 286 286 286 285 283 281 279 277 277 276 276 274 273 273 273 272 272 272
297 297 296 296 297 297 297 297 297 297 297 295 293 292 290 290 289 288 287 287 286 286 285 286 286 287 287 287 287 285 283 281 280 279 278 277 276 275 274 274 273 272 272 272
297 296 296 297 297 297 298 298 298 298 298 297 295 294 293 292 292 292 291 289 288 288 287 287 287 288 288 288 287 285 284 282 282 281 280 279 278 277 277 275 274 273 273 273
299 298 298 298 298 299 299 299 299 299 299 298 296 295 295 295 295 294 293 292 291 290 289 289 289 289 289 289 287 286 285 284 284 284 283 282 281 279 277 276 276 276 275 274
300 300 301 301 300 299 300 300 300 300 299 298 297 297 296 296 296 296 295 293 293 292 291 291 290 290 289 288 286 286 286 286 285 285 285 284 283 281 279 278 278 278 277 276
300 301 301 302 301 300 300 301 302 302 301 300 300 299 298 297 297 297 296 295 294 293 293 292 291 290 289 288 287 287 287 287 286 286 286 286 285 283 281 280 280 279 278 277
301 302 302 302 302 301 302 303 304 305 305 304 303 302 301 300 299 298 297 296 295 294 293 292 291 290 289 288 288 288 288 287 286 286 286 286 285 284 283 282 282 281 280 279
303 303 304 305 305 304 305 307 308 309 309 307 306 305 304 303 302 300 299 297 296 295 294 294 293 291 290 289 289 288 288 287 287 287 287 286 286 285 284 283 283 283 282 282
305 305 306 307 308 308 308 310 311 312 312 310 308 307 306 305 304 303 301 300 299 298 297 296 295 293 292 291 290 289 289 289 289 288 288 287 286 285 285 285 285 285 284 284
307 308 309 309 310 310 310 312 313 314 314 313 311 309 308 307 306 305 304 302 301 300 298 297 296 295 294 292 291 290 290 290 290 290 289 288 287 286 286 286 286 286 285 285
309 310 312 313 313 312 311 312 313 313 314 313 313 312 310 308 307 306 305 305 304 303 301 299 298 297 296 294 292 292 292 292 292 292 291 290 290 289 288 287 287 287 287 287
Height
5588 5586 5585 5583 5582 5580 5578 5576 5575 5575 5574 5573 5569 5567 5565 5563 5561 5559 5558 5557 5556 5554 5553 5552 5551 5550 5549 5547 5546 5545 5545 5544 5543 5543 5542 5541 5540 5539 5539 5538 5538 5538 5539 5539
5578 5576 5574 5572 5572 5570 5568 5566 5564 5563 5563 5562 5558 5556 5554 5552 5550 5548 5547 5545 5543 5542 5541 5539 5538 5537 5536 5534 5533 5532 5530 5530 5529 5528 5527 5526 5526 5525 5523 5523 5522 5522 5523 5523
5568 5566 5563 5563 5563 5560 5558 5556 5554 5552 5553 5549 5547 5545 5543 5540 5538 5536 5535 5533 5531 5529 5528 5526 5525 5524 5522 5521 5520 5518 5517 5516 5515 5513 5512 5511 5511 5510 5509 5508 5507 5507 5507 5508
5557 5555 5553 5556 5552 5549 5547 5545 5543 5541 5540 5537 5535 5533 5531 5528 5526 5524 5522 5520 5518 5516 5515 5513 5512 5510 5509 5508 5506 5505 5503 5502 5500 5499 5498 5496 5495 5495 5494 5493 5492 5492 5492 5493
5546 5543 5542 5544 5541 5538 5535 5534 5532 5529 5528 5525 5523 5521 5519 5516 5514 5512 5510 5508 5506 5504 5502 5500 5499 5497 5496 5494 5492 5491 5489 5488 5486 5484 5483 5482 5480 5479 5478 5478 5477 5477 5477 5477
5536 5532 5531 5534 5530 5526 5524 5523 5522 5518 5516 5513 5511 5509 5508 5504 5502 5499 5497 5495 5493 5491 5489 5487 5486 5484 5482 5481 5479 5477 5475 5473 5471 5470 5468 5467 5465 5464 5463 5462 5462 5461 5461 5462
5525 5521 5520 5521 5517 5514 5514 5513 5509 5506 5503 5501 5498 5497 5494 5491 5489 5486 5484 5482 5480 5478 5476 5474 5472 5471 5469 5467 5465 5463 5461 5459 5457 5455 5453 5452 5450 5449 5448 5447 5447 5447 5447 5447
5514 5511 5512 5509 5505 5503 5501 5498 5496 5493 5490 5488 5486 5483 5480 5478 5475 5473 5471 5469 5467 5465 5463 5461 5459 5457 5455 5453 5451 5449 5447 5445 5443 5440 5438 5437 5435 5434 5433 5432 5432 5432 5432 5432
5505 5503 5500 5496 5493 5491 5488 5486 5483 5480 5478 5475 5472 5470 5467 5465 5462 5460 5457 5455 5453 5451 5449 5447 5445 5443 5441 5439 5437 5434 5432 5430 5428 5426 5424 5422 5421 5419 5418 5417 5417 5417 5418 5418
5492 5490 5488 5484 5481 5478 5475 5472 5470 5467 5464 5461 5459 5456 5454 5451 5449 5446 5444 5441 5439 5437 5435 5433 5431 5429 5427 5424 5422 5420 5418 5416 5413 5411 5409 5407 5406 5405 5404 5403 5403 5403 5403 5404
5480 5478 5475 5472 5469 5466 5463 5460 5457 5454 5451 5448 5446 5443 5440 5438 5435 5432 5430 5428 5425 5423 5421 5419 5417 5415 5412 5410 5408 5406 5403 5401 5399 5397 5395 5393 5392 5390 5390 5389 5389 5389 5389 5389
5469 5467 5463 5461 5457 5453 5450 5447 5444 5441 5438 5435 5432 5430 5427 5424 5421 5419 5416 5414 5411 5409 5407 5405 5403 5401 5398 5396 5394 5391 5389 5387 5384 5383 5381 5379 5378 5377 5376 5375 5375 5374 5374 5374
5457 5454 5450 5448 5444 5441 5437 5434 5431 5428 5425 5422 5419 5416 5413 5411 5408 5405 5403 5400 5398 5396 5394 5392 5389 5387 5385 5382 5380 5377 5375 5373 5371 5369 5367 5366 5365 5364 5363 5362 5361 5360 5360 5360
5445 5442 5439 5436 5432 5429 5425 5422 5419 5416 5412 5409 5406 5403 5400 5398 5395 5392 5390 5388 5385 5383 5381 5378 5376 5374 5371 5368 5366 5363 5361 5359 5357 5355 5354 5352 5351 5351 5350 5349 5348 5347 5347 5346
5434 5430 5427 5424 5420 5417 5413 5410 5407 5404 5400 5397 5394 5391 5388 5385 5383 5380 5377 5375 5373 5371 5368 5366 5363 5361 5358 5356 5353 5350 5348 5346 5344 5342 5341 5340 5339 5338 5337 5336 5335 5335 5334 5333
5423 5419 5416 5412 5409 5405 5402 5398 5395 5392 5388 5385 5382 5379 5376 5373 5371 5368 5366 5363 5361 5359 5357 5354 5352 5349 5346 5344 5341 5338 5336 5334 5332 5330 5329 5328 5327 5326 5325 5324 5323 5322 5322 5321
5412 5409 5405 5402 5398 5395 5391 5388 5384 5381 5377 5374 5371 5368 5365 5362 5359 5357 5355 5352 5350 5348 5345 5343 5340 5338 5335 5332 5330 5327 5325 5323 5321 5319 5318 5317 5315 5314 5313 5312 5311 5311 5310 5309
5402 5398 5395 5392 5388 5384 5381 5377 5374 5370 5367 5363 5360 5357 5354 5351 5349 5346 5344 5341 5339 5337 5334 5331 5329 5326 5324 5321 5319 5316 5314 5312 5311 5309 5307 5306 5304 5303 5302 5301 5300 5299 5298 5297
5392 5389 5385 5382 5378 5375 5371 5368 5364 5360 5357 5353 5350 5347 5344 5341 5339 5336 5333 5331 5328 5326 5323 5320 5318 5315 5313 5310 5308 5306 5304 5302 5300 5298 5297 5295 5294 5293 5291 5290 5289 5288 5287 5286
5383 5379 5376 5372 5369 5365 5361 5358 5354 5351 5347 5344 5341 5338 5335 5332 5329 5326 5323 5321 5318 5315 5313 5310 5308 5305 5302 5300 5298 5296 5294 5292 5291 5289 5287 5285 5284 5282 5281 5279 5278 5277 5276 5275
5374 5370 5367 5363 5359 5356 5352 5349 5345 5342 5338 5335 5332 5329 5326 5323 5320 5317 5314 5311 5308 5305 5303 5300 5298 5295 5293 5291 5289 5287 5285 5283 5281 5279 5277 5276 5274 5272 5270 5269 5268 5267 5266 5264
5365 5362 5358 5354 5350 5347 5343 5340 5337 5333 5330 5326 5323 5320 5317 5314 5311 5307 5304 5301 5298 5295 5293 5290 5288 5285 5283 5281 5279 5277 5275 5274 5272 5270 5268 5266 5264 5262 5261 5259 5258 5256 5255 5254
5356 5353 5349 5346 5342 5339 5335 5332 5328 5325 5322 5318 5315 5311 5308 5305 5301 5298 5295 5292 5289 5286 5284 5281 5278 5276 5274 5272 5270 5268 5266 5264 5262 5260 5259 5257 5255 5253 5251 5249 5248 5246 5245 5243
5348 5345 5341 5337 5334 5331 5327 5324 5321 5317 5314 5310 5306 5303 5299 5296 5292 5289 5286 5283 5280 5277 5274 5272 5269 5267 5264 5262 5260 5258 5256 5255 5253 5251 5249 5247 5245 5243 5241 5240 5238 5236 5234 5233
5340 5337 5333 5330 5327 5323 5320 5317 5313 5310 5306 5302 5298 5294 5291 5287 5284 5280 5277 5274 5271 5268 5265 5262 5260 5257 5255 5253 5251 5249 5247 5245 5243 5241 5240 5238 5236 5234 5232 5230 5228 5226 5224 5222
5333 5330 5327 5323 5320 5317 5313 5310 5306 5302 5298 5294 5290 5287 5283 5279 5276 5272 5269 5266 5263 5260 5257 5254 5251 5248 5246 5244 5242 5240 5238 5236 5234 5232 5230 5228 5226 5224 5222 5220 5218 5216 5214 5213
5327 5323 5320 5317 5313 5310 5306 5303 5299 5295 5291 5287 5283 5279 5275 5271 5268 5264 5261 5258 5254 5251 5248 5245 5243 5240 5238 5236 5234 5232 5230 5228 5226 5223 5221 5219 5217 5215 5213 5211 5209 5207 5205 5204